Grand Island, NE

9:05 AM CST on December 03, 2016 (GMT -0600)
Central Nebraska Regional

Weather History for KGRI - April, 2013

Change the Weather History Date:

Sunday, April 7, 2013

  Actual Average Record
Temperature  
Mean Temperature 55 °F 48 °F  
Max Temperature 69 °F 60 °F 86 °F (1988)
Min Temperature 41 °F 35 °F 14 °F (2009)
Degree Days  
Heating Degree Days 10 18  
Month to date heating degree days 118 131  
Since 1 July heating degree days 5475 5688  
Cooling Degree Days 0 0  
Month to date cooling degree days 0 0  
Year to date cooling degree days 0 0  
Growing Degree Days 5 (Base 50)    
Moisture  
Dew Point 41 °F    
Average Humidity 56    
Maximum Humidity 80    
Minimum Humidity 31    
Precipitation  
Precipitation 0.55 in 0.07 in 2.05 in (1978)
Month to date precipitation 0.55 0.48  
Year to date precipitation 3.32 3.49  
Snow  
Snow 0.00 in 0.10 in 2.80 in (1973)
Month to date snowfall 0.0 0.7  
Since 1 July snowfall 27.6 28.2  
Snow Depth 0.00 in    
Sea Level Pressure  
Sea Level Pressure 29.74 in    
Wind  
Wind Speed 8 mph (SSW)    
Max Wind Speed 26 mph    
Max Gust Speed 35 mph    
Visibility 9 miles    
Events Rain , Thunderstorm    
T = Trace of Precipitation, MM = Missing Value Source: NWS Daily Summary

Daily Weather History Graph

Daily Weather History Graph

Search for Another Location

Airport or City:

Trip Planner

Search our weather history database for the weather conditions in past years. The results will help you decide how hot, cold, wet, or windy it might be!

Date:

Astronomy

Apr. 07, 2013 Rise Set
Actual Time 7:06 AM CDT 8:04 PM CDT
Civil Twilight 6:38 AM CDT 8:32 PM CDT
Nautical Twilight 6:05 AM CDT 9:06 PM CDT
Astronomical Twilight 5:30 AM CDT 9:41 PM CDT
Moon 5:25 AM CDT (4/7) 5:37 PM CDT (4/7)
Length of Visible Light 13h 54m
Length of Day
12h 58m
Waning Crescent, 8% of the Moon is Illuminated
Apr 7
Waning Crescent
Apr 10
New
Apr 18
First Quarter
Apr 25
Full
May 2
Last Quarter

Hourly Weather History & Observations

Time (CDT) Temp. Windchill Dew Point Humidity Pressure Visibility Wind Dir Wind Speed Gust Speed Precip Events Conditions
12:53 AM 48.0 °F - 34.0 °F 58% 29.82 in 10.0 mi Calm Calm - N/A   Partly Cloudy
1:53 AM 46.9 °F - 34.0 °F 61% 29.83 in 10.0 mi Calm Calm - N/A   Overcast
2:53 AM 44.1 °F 42.5 °F 34.0 °F 68% 29.82 in 10.0 mi WSW 3.5 mph - N/A   Clear
3:53 AM 44.1 °F - 33.1 °F 65% 29.79 in 10.0 mi Calm Calm - N/A   Clear
4:53 AM 46.0 °F - 37.9 °F 73% 29.78 in 10.0 mi Calm Calm - N/A   Mostly Cloudy
5:53 AM 48.0 °F - 37.0 °F 66% 29.76 in 10.0 mi South 4.6 mph - N/A   Overcast
6:53 AM 48.0 °F - 39.0 °F 71% 29.77 in 10.0 mi SSE 4.6 mph - N/A   Overcast
7:53 AM 48.9 °F - 39.0 °F 69% 29.78 in 10.0 mi East 3.5 mph - N/A   Clear
8:53 AM 52.0 °F - 39.9 °F 63% 29.78 in 10.0 mi South 4.6 mph - N/A   Mostly Cloudy
9:53 AM 60.1 °F - 39.0 °F 46% 29.77 in 10.0 mi SSW 10.4 mph - N/A   Scattered Clouds
10:53 AM 64.0 °F - 37.9 °F 38% 29.77 in 10.0 mi SW 6.9 mph - N/A   Scattered Clouds
11:53 AM 69.1 °F - 37.9 °F 32% 29.77 in 10.0 mi West 16.1 mph - N/A   Overcast
12:53 PM 64.9 °F - 37.9 °F 37% 29.76 in 10.0 mi WNW 16.1 mph - 0.00 in Rain Light Rain
1:53 PM 64.0 °F - 37.9 °F 38% 29.75 in 10.0 mi SW 8.1 mph - 0.00 in   Overcast
2:53 PM 64.0 °F - 37.9 °F 38% 29.72 in 10.0 mi SE 4.6 mph - 0.00 in   Overcast
3:53 PM 64.9 °F - 37.9 °F 37% 29.70 in 10.0 mi East 6.9 mph - N/A   Overcast
4:53 PM 68.0 °F - 39.9 °F 36% 29.64 in 10.0 mi ESE 10.4 mph - 0.00 in   Mostly Cloudy
5:53 PM 60.1 °F - 46.0 °F 60% 29.69 in 10.0 mi NW 23.0 mph 34.5 mph 0.00 in   Overcast
6:45 PM 53.6 °F - 50.0 °F 88% 29.71 in 4.0 mi West 17.3 mph - 0.01 in Rain , Thunderstorm Heavy Thunderstorms and Rain
6:53 PM 54.0 °F - 50.0 °F 86% 29.72 in 3.0 mi West 11.5 mph - 0.04 in Rain , Thunderstorm Thunderstorms and Rain
7:13 PM 53.6 °F - 50.0 °F 88% 29.72 in 4.0 mi West 10.4 mph - 0.06 in Rain Rain
7:53 PM 53.1 °F - 50.0 °F 89% 29.72 in 4.0 mi West 13.8 mph - 0.30 in Rain Heavy Rain
8:53 PM 53.1 °F - 46.9 °F 80% 29.65 in 10.0 mi ENE 11.5 mph - 0.21 in Rain Light Rain
9:53 PM 51.1 °F - 48.0 °F 89% 29.64 in 10.0 mi ESE 8.1 mph - N/A   Clear
10:53 PM 50.0 °F - 45.0 °F 83% 29.65 in 10.0 mi SE 6.9 mph - N/A   Clear
11:53 PM 50.0 °F - 44.1 °F 80% 29.62 in 10.0 mi SE 8.1 mph - N/A   Clear